Location: Caltech
(34.1382°N, 118.1253°W)
Time: 07:53:39
(UTC-08:00)

Tiros 1 despin weight - Visible Passes

Search period start: 28 February 2015 00:00
Search period end: 10 March 2015 01:00
Orbit: 599 x 648 km, 48.2° (Epoch: 27 February)

Date Brightness Start Highest point End Pass type
(mag) Time Alt. Az. Time Alt. Az. Time Alt. Az.
28 Feb ? 05:21:08 10° SSW 05:25:15 38° SE 05:29:26 10° ENE visible
01 Mar ? 04:00:59 10° SSE 04:02:21 11° SE 04:03:56 10° ESE visible
01 Mar ? 05:39:06 10° SW 05:43:33 86° SE 05:48:04 10° NE visible
02 Mar ? 04:19:11 22° SSE 04:20:30 26° SE 04:24:17 10° ENE visible
03 Mar ? 04:37:26 40° SSW 04:38:44 59° SE 04:43:09 10° ENE visible
04 Mar ? 03:18:19 12° E 03:18:19 12° E 03:18:52 10° E visible
04 Mar ? 04:55:31 37° WSW 04:57:07 65° NW 05:01:34 10° NE visible
05 Mar ? 03:36:15 23° E 03:36:15 23° E 03:38:09 10° ENE visible
05 Mar ? 05:13:27 21° W 05:15:40 34° NNW 05:19:47 10° NE visible
06 Mar ? 03:54:05 35° NE 03:54:05 35° NE 03:56:44 10° NE visible
06 Mar ? 05:31:15 12° WNW 05:34:24 22° NNW 05:37:54 10° NNE visible
07 Mar ? 04:11:47 37° N 04:11:47 37° N 04:15:00 10° NE visible
08 Mar ? 05:29:25 26° NNW 05:29:25 26° NNW 05:33:08 10° NNE visible
09 Mar ? 04:09:49 12° NE 04:09:49 12° NE 04:10:11 10° NE visible
09 Mar ? 05:46:59 17° NW 05:48:08 18° NNW 05:51:14 10° NNE visible
